TimeEDT,TemperatureF,Dew PointF,Humidity,Sea Level PressureIn,VisibilityMPH,Wind Direction,Wind SpeedMPH,Gust SpeedMPH,PrecipitationIn,Events,Conditions,WindDirDegrees,DateUTC
12:51 AM,61.0,59.0,93,30.25,8.0,East,3.5,-,N/A,,Clear,90,2012-09-13 04:51:00
1:51 AM,61.0,59.0,93,30.25,8.0,East,4.6,-,N/A,,Clear,100,2012-09-13 05:51:00
2:51 AM,61.0,57.9,90,30.26,8.0,Calm,Calm,-,N/A,,Mostly Cloudy,0,2012-09-13 06:51:00
3:51 AM,61.0,59.0,93,30.25,7.0,Calm,Calm,-,N/A,,Mostly Cloudy,0,2012-09-13 07:51:00
4:51 AM,61.0,57.9,90,30.26,9.0,Calm,Calm,-,N/A,,Scattered Clouds,0,2012-09-13 08:51:00
5:51 AM,57.9,57.0,97,30.27,6.0,East,3.5,-,N/A,,Clear,100,2012-09-13 09:51:00
6:51 AM,57.9,55.9,93,30.30,7.0,Calm,Calm,-,N/A,,Clear,0,2012-09-13 10:51:00
7:51 AM,59.0,57.0,93,30.32,5.0,East,3.5,-,N/A,,Clear,100,2012-09-13 11:51:00
8:51 AM,64.0,61.0,90,30.32,7.0,Calm,Calm,-,N/A,,Clear,0,2012-09-13 12:51:00
9:51 AM,69.1,60.1,73,30.33,10.0,South,5.8,-,N/A,,Partly Cloudy,190,2012-09-13 13:51:00
10:51 AM,73.9,60.1,62,30.33,10.0,SSW,5.8,-,N/A,,Clear,200,2012-09-13 14:51:00
11:51 AM,77.0,60.1,56,30.32,10.0,Calm,Calm,-,N/A,,Clear,0,2012-09-13 15:51:00
12:51 PM,80.1,59.0,48,30.30,10.0,SSW,6.9,-,N/A,,Clear,210,2012-09-13 16:51:00
1:51 PM,82.0,59.0,45,30.27,10.0,SW,4.6,-,N/A,,Clear,230,2012-09-13 17:51:00
2:51 PM,81.0,53.1,38,30.24,10.0,Calm,Calm,-,N/A,,Clear,0,2012-09-13 18:51:00
3:51 PM,82.9,57.0,41,30.22,10.0,SSE,6.9,-,N/A,,Partly Cloudy,160,2012-09-13 19:51:00
4:51 PM,81.0,55.9,42,30.21,10.0,ESE,3.5,-,N/A,,Clear,110,2012-09-13 20:51:00
5:51 PM,80.1,55.9,43,30.21,10.0,ESE,3.5,-,N/A,,Clear,110,2012-09-13 21:51:00
6:51 PM,79.0,57.0,47,30.21,10.0,Calm,Calm,-,N/A,,Clear,0,2012-09-13 22:51:00
7:51 PM,75.0,57.0,53,30.21,10.0,Calm,Calm,-,N/A,,Clear,0,2012-09-13 23:51:00
8:51 PM,70.0,61.0,73,30.22,10.0,Calm,Calm,-,N/A,,Clear,0,2012-09-14 00:51:00
9:51 PM,68.0,61.0,78,30.22,10.0,Calm,Calm,-,N/A,,Clear,0,2012-09-14 01:51:00
10:51 PM,66.9,61.0,81,30.23,10.0,Calm,Calm,-,N/A,,Clear,0,2012-09-14 02:51:00
11:51 PM,64.9,61.0,87,30.24,10.0,Calm,Calm,-,N/A,,Clear,0,2012-09-14 03:51:00